Location: Lucerne Valley
(34.4439°N, 116.9669°E)
Time: 21:04:39
(UTC-08:00)

Vanguard 2 - All Passes

Search period start: 21 February 2018 00:00
Search period end: 03 March 2018 00:00
Orbit: 553 x 2939 km, 32.9° (Epoch: 20 February)

Date Brightness Start Highest point End Pass type
(mag) Time Alt. Az. Time Alt. Az. Time Alt. Az.
21 Feb - 00:52:44 10° SW 01:05:32 56° SSE 01:13:13 10° E daylight
21 Feb - 03:05:19 10° W 03:15:11 79° S 03:20:58 10° E visible
21 Feb - 05:17:19 10° W 05:23:52 58° SSW 05:28:15 10° ESE visible
21 Feb - 07:28:56 10° WSW 07:31:21 14° SW 07:33:33 10° S night (unlit)
21 Feb - 20:54:43 10° S 21:02:01 14° SE 21:08:29 10° ESE daylight
21 Feb - 22:59:33 10° SSW 23:13:11 37° SSE 23:22:30 10° E daylight
22 Feb - 01:10:47 10° WSW 01:23:43 65° SSE 01:31:19 10° E daylight
22 Feb - 03:23:43 10° W 03:33:20 80° S 03:38:59 10° E visible
22 Feb - 05:35:39 10° W 05:41:48 45° SSW 05:46:02 10° SE visible
22 Feb - 21:09:14 10° S 21:20:14 21° SE 21:29:18 10° ESE daylight
22 Feb - 23:16:50 10° SW 23:31:23 46° SSE 23:40:56 10° E daylight
23 Feb - 01:29:00 10° WSW 01:41:54 74° S 01:49:23 10° E daylight
23 Feb - 03:42:07 10° W 03:51:27 77° S 03:56:59 10° ESE visible
23 Feb - 05:54:06 10° W 05:59:38 33° SSW 06:03:37 10° SE visible
23 Feb - 21:25:07 10° SSW 21:38:24 28° SSE 21:48:48 10° E daylight
23 Feb - 23:34:27 10° SW 23:49:35 55° SSE 23:59:12 10° E daylight
24 Feb - 01:47:22 10° WSW 02:00:06 79° S 02:07:27 10° E daylight
24 Feb - 04:00:31 10° W 04:09:32 69° SSW 04:14:56 10° ESE visible
24 Feb - 06:12:44 10° W 06:17:21 22° SW 06:20:53 10° SSE visible
24 Feb - 19:39:11 10° SSE 19:45:14 13° SE 19:50:58 10° ESE daylight
24 Feb - 21:41:43 10° SSW 21:56:33 36° SSE 22:07:43 10° E daylight
24 Feb - 23:52:23 10° WSW 00:07:47 64° SSE 00:17:22 10° E daylight
25 Feb - 02:05:48 10° W 02:18:18 82° S 02:25:29 10° E daylight
25 Feb - 04:18:55 10° W 04:27:32 58° SSW 04:32:48 10° ESE visible
25 Feb - 06:31:56 10° WSW 06:34:57 15° SW 06:37:32 10° S visible
25 Feb - 19:52:42 10° S 20:03:20 19° SE 20:12:54 10° ESE daylight
25 Feb - 21:58:48 10° SW 22:14:42 45° SSE 22:26:17 10° E daylight
26 Feb - 00:10:32 10° WSW 00:26:01 73° SSE 00:35:29 10° E daylight
26 Feb - 02:24:17 10° W 02:36:29 81° S 02:43:30 10° E visible
26 Feb - 04:37:21 10° W 04:45:26 46° SSW 04:50:31 10° SE visible
26 Feb - 20:08:10 10° S 20:21:21 26° SE 20:32:53 10° E daylight
26 Feb - 22:16:16 10° SW 22:32:53 54° SSE 22:44:38 10° E daylight
27 Feb - 00:28:51 10° WSW 00:44:16 79° S 00:53:34 10° E daylight
27 Feb - 02:42:46 10° W 02:54:39 77° S 03:01:30 10° ESE visible
27 Feb - 04:55:52 10° W 05:03:11 34° SSW 05:08:02 10° SSE visible
27 Feb - 20:24:30 10° SSW 20:39:23 34° SE 20:52:05 10° E daylight
27 Feb - 22:34:02 10° SW 22:51:05 63° SSE 23:02:53 10° E daylight
28 Feb - 00:47:17 10° W 01:02:32 83° S 01:11:39 10° E daylight
28 Feb - 03:01:14 10° W 03:12:44 69° SSW 03:19:26 10° ESE visible
28 Feb - 05:14:38 10° W 05:20:49 25° SW 05:25:13 10° SSE visible
28 Feb - 18:37:26 10° SSE 18:46:16 16° SE 18:54:57 10° ESE daylight
28 Feb - 20:41:22 10° SSW 20:57:26 42° SSE 21:10:50 10° E daylight
28 Feb - 22:52:03 10° WSW 23:09:19 71° SSE 23:21:04 10° E daylight
01 Mar - 01:05:47 10° W 01:20:48 84° S 01:29:43 10° E daylight
01 Mar - 03:19:41 10° W 03:30:44 59° SSW 03:37:16 10° SE visible
01 Mar - 05:33:53 10° W 05:38:20 16° SW 05:41:51 10° S visible
01 Mar - 18:52:12 10° S 19:04:08 23° SE 19:15:47 10° E daylight
01 Mar - 20:58:38 10° SW 21:15:31 51° SSE 21:29:20 10° E daylight
01 Mar - 23:10:16 10° WSW 23:27:36 77° SSE 23:39:12 10° E daylight
02 Mar - 01:24:18 10° W 01:39:03 82° S 01:47:46 10° E daylight
02 Mar - 03:38:12 10° W 03:48:36 47° SSW 03:54:55 10° SE visible
02 Mar - 19:08:10 10° SSW 19:22:00 30° SE 19:35:26 10° E daylight
02 Mar - 21:16:13 10° SW 21:33:40 60° SSE 21:47:41 10° E daylight
02 Mar - 23:28:38 10° WSW 23:45:55 82° S 23:57:20 10° E daylight
